Regional Weather Roundup
Issued by NWS

Home | Current Version | Previous Version | Text Only | Print | Product List | Glossary On
Versions: 1 2 3 4 5 6 7 8 9 10 11 12 13 14 15 16 17 18 19 20 21 22 23 24 25 26 27 28 29 30 31 32 33 34 35 36 37 38 39 40 41 42 43 44 45 46 47 48 49 50
000
ASPQ40 PGUM 270510
RWRPQ
WEATHER ROUNDUP FOR THE MARIANAS AND MICRONESIA
NATIONAL WEATHER SERVICE TIYAN GU
300 PM CHST MON APR 27 2015

GUZ001>004-270600-
MARIANA ISLANDS-

CITY           SKY/WX    TMP DP  RH WIND       PRES   REMARKS
GUAM AIRPORT   PTSUNNY   79  77  94 SE9       29.85S
ANDERSEN AFB   PTSUNNY   81  75  83 SE14      29.85F
ROTA AIRPORT   NOT AVBL
TINIAN AP      NOT AVBL
SAIPAN AP      MOSUNNY   86  73  66 E17G25    29.86S HX  93

$$

PMZ161-270600-
REPUBLIC OF PALAU-

CITY           SKY/WX    TMP DP  RH WIND       PRES   REMARKS
KOROR AP       PTSUNNY   90  79  70 W12G18    29.77F HX 105
KOROR WSO      NOT AVBL

$$

PMZ171>174-270600-
FEDERATED STATES OF MICRONESIA-

CITY           SKY/WX    TMP DP  RH WIND       PRES   REMARKS
YAP AIRPORT    PTSUNNY   84  79  84 E8        29.75F HX  96
CHUUK AP       NOT AVBL
POHNPEI AP     NOT AVBL
POHNPEI WSO    NOT AVBL
KOSRAE AP      NOT AVBL

$$

PMZ181-270600-
REPUBLIC OF THE MARSHALL ISLANDS-

CITY           SKY/WX    TMP DP  RH WIND       PRES   REMARKS
KWAJALEIN AP   HVY RAIN  79  75  89 E17       29.81R VSB 1
MAJURO AP      NOT AVBL
MAJURO WSO     PTSUNNY   84  77  79 NE8       29.76S HX  94

$$



USA.gov is the U.S. government's official web portal to all federal, state and local government web resources and services.